Theta_e
327 330 333 334 333 334 336 339 339 343 342 339 334 332 330 332 331 332 338 337 335 334 340 331 331 330 327 328 329 326 325 322 324 321 321 323 326 328 327 327 329 334 341
326 328 332 334 334 335 338 340 341 343 343 339 339 337 336 334 334 334 338 336 335 335 331 333 327 328 322 325 326 325 319 319 322 318 317 315 318 322 324 327 328 332 337
324 328 330 333 335 335 337 338 342 341 340 340 336 336 335 333 327 328 327 329 329 327 329 328 326 324 322 318 322 321 320 314 318 323 318 312 311 316 324 329 327 330 334
325 327 330 332 334 334 338 336 337 337 335 336 333 331 327 323 324 323 323 324 325 322 321 322 320 321 317 314 313 313 313 313 310 313 316 320 318 316 314 322 325 331 337
324 326 328 330 331 333 334 336 335 333 333 331 329 325 324 322 321 319 322 323 322 321 317 316 316 314 311 311 311 310 309 309 308 309 310 311 313 315 315 315 317 323 328
322 325 330 330 330 331 332 332 330 329 330 327 325 323 320 319 316 315 314 314 314 314 314 313 312 311 310 309 309 308 308 308 308 308 307 308 306 310 312 313 320 320 324
323 324 327 326 328 328 327 327 325 325 325 323 321 320 318 317 315 314 312 311 310 309 310 310 309 309 310 309 307 306 306 305 305 306 306 308 306 308 310 313 314 317 322
323 325 325 325 326 326 324 323 322 321 321 320 318 317 316 313 313 313 309 307 307 308 309 308 308 307 307 308 307 304 304 304 304 304 305 305 307 307 308 307 310 312 316
322 323 324 325 325 324 321 321 319 319 318 316 315 314 314 313 310 309 309 307 307 307 307 307 306 306 307 307 306 304 303 303 303 304 304 305 306 308 308 308 309 310 309
322 323 324 324 323 321 320 319 318 316 315 314 313 312 312 310 307 307 306 307 307 306 306 306 305 305 304 303 303 302 303 302 303 303 303 304 305 307 308 308 309 312 317
321 323 323 322 320 319 318 317 315 313 312 311 311 310 307 306 306 305 305 306 305 306 304 304 304 304 302 303 301 301 301 301 302 303 303 304 306 306 307 308 311 314 315
322 323 321 320 317 317 315 313 313 311 309 309 308 306 304 304 304 304 305 305 305 305 305 304 302 302 302 302 301 301 302 301 301 302 304 304 306 306 308 309 310 310 316
321 321 319 316 315 314 312 311 310 308 307 305 303 303 303 302 303 304 301 305 306 305 304 302 301 301 301 301 301 302 302 302 302 303 304 304 306 306 309 310 311 312 315
320 318 316 315 314 311 309 308 307 305 303 301 301 301 302 302 301 301 305 304 305 303 301 301 300 301 301 301 302 302 305 303 304 304 306 306 307 307 309 311 312 315 318
315 314 312 312 310 308 307 305 304 301 300 300 300 301 300 299 300 304 304 304 303 302 300 300 301 300 301 301 301 305 305 304 305 307 307 308 309 311 311 312 314 316 319
312 311 311 309 307 305 304 302 301 300 301 300 301 300 299 303 304 303 302 301 300 300 300 300 299 299 301 300 302 305 304 304 304 304 307 309 310 312 313 312 313 312 312
311 310 308 307 305 304 302 299 300 301 300 302 301 301 303 303 303 302 301 299 299 299 299 299 299 298 301 299 300 303 304 303 303 303 304 305 306 307 310 308 308 307 307
310 309 307 306 305 303 301 302 301 300 301 302 302 302 303 304 305 307 302 301 300 299 298 299 299 299 300 298 299 302 305 305 303 303 304 304 304 303 305 305 304 304 304
310 307 307 305 304 303 303 301 302 303 301 302 303 305 304 304 304 304 304 302 302 300 300 300 300 300 300 298 298 302 303 303 304 304 302 304 304 300 301 304 303 303 303
309 307 306 305 304 303 303 302 301 301 302 304 304 304 305 304 304 304 304 306 307 306 305 302 303 303 302 297 297 300 303 302 302 303 304 301 300 298 298 308 307 305 306
307 307 305 303 304 303 304 303 303 302 304 304 305 305 305 304 304 305 305 304 305 304 306 307 306 306 302 302 297 297 303 303 303 302 302 304 298 297 297 301 309 306 310
306 306 304 304 304 305 305 304 303 305 305 305 305 304 305 303 303 304 303 302 302 302 304 305 305 304 304 299 298 296 297 302 305 305 306 303 296 297 297 303 297 298 305
306 305 305 304 304 305 305 304 304 305 304 303 303 305 305 304 305 302 300 297 299 298 298 300 300 301 302 302 298 298 298 300 305 306 302 297 297 298 303 299 299 302 308
304 305 304 304 304 305 305 305 305 305 304 303 304 304 304 304 305 302 299 298 297 296 296 297 297 298 299 299 300 303 306 302 304 303 306 303 301 299 302 304 305 307 307
305 305 305 304 303 305 305 306 305 305 303 303 304 302 303 303 302 301 299 298 297 295 296 296 299 297 296 297 293 295 300 303 301 304 305 302 302 302 303 304 305 304 305
304 305 305 305 305 305 305 305 306 305 304 303 302 300 301 300 299 299 299 291 292 291 290 290 293 299 293 292 292 292 292 293 294 301 300 299 300 299 300 300 301 302 301
Wind_Speed
16 15 13 11 9 8 7 7 7 6 6 7 8 9 9 10 11 11 13 13 13 15 12 12 13 13 14 15 15 14 16 14 13 14 13 14 15 16 15 15 15 18 17
15 14 13 13 11 10 8 9 8 5 6 7 7 8 9 10 10 11 11 12 13 14 14 13 14 15 14 16 15 14 14 14 13 14 14 15 13 13 15 15 15 18 15
16 15 13 13 9 10 9 6 5 5 4 8 7 5 8 9 11 12 13 14 16 17 17 16 15 15 13 14 14 14 15 13 13 17 14 15 14 14 12 12 14 16 13
13 12 14 13 12 10 8 5 5 4 5 7 7 8 8 10 11 12 13 14 16 18 19 17 15 14 11 11 10 10 10 11 11 11 13 17 16 16 16 14 14 13 14
13 12 13 14 6 8 7 6 5 5 5 6 8 8 11 11 12 12 16 15 14 14 17 17 14 12 11 11 12 12 12 10 11 10 12 15 15 15 15 14 13 15 13
12 12 12 10 9 9 7 5 3 3 6 8 10 11 13 14 13 15 14 13 12 12 14 15 14 13 14 12 10 12 13 12 11 10 11 10 9 12 12 15 13 14 14
8 7 10 7 7 6 4 4 4 5 7 10 11 12 13 15 16 15 12 15 12 12 13 13 12 12 13 14 13 13 13 11 12 12 10 10 10 10 13 14 13 15 11
8 10 10 7 8 6 4 6 7 8 10 12 13 12 13 10 12 12 12 11 12 12 13 13 14 15 16 15 13 11 11 12 11 14 12 10 11 10 9 9 11 14 14
7 8 10 6 6 4 5 7 9 11 12 13 12 13 13 13 12 13 12 11 14 11 14 15 17 16 16 15 15 11 13 12 12 12 12 11 10 10 7 7 10 13 14
9 9 7 6 4 4 4 8 11 12 14 14 13 12 14 14 13 13 15 14 13 16 15 16 16 15 14 15 14 12 12 13 10 9 11 11 9 9 8 8 9 14 11
11 9 7 6 5 7 9 10 12 14 14 14 15 15 14 14 13 12 12 13 14 15 15 15 16 16 15 15 14 14 15 15 13 11 11 12 11 8 8 8 9 12 11
12 9 7 6 6 8 10 11 12 13 14 14 15 14 13 14 14 13 15 15 14 14 15 15 15 15 15 15 15 15 14 14 13 12 11 12 8 10 10 9 10 10 13
9 8 7 6 7 9 11 12 13 14 14 15 14 14 13 13 14 15 14 15 14 16 15 14 15 15 15 15 15 15 16 13 11 11 10 10 10 9 8 9 9 9 12
8 8 6 6 8 10 11 11 12 13 13 13 13 13 13 14 14 13 14 14 14 15 15 14 14 14 14 14 14 15 12 6 9 10 9 9 9 9 8 8 9 11 11
8 6 6 7 9 10 11 12 12 11 11 11 12 12 12 12 12 12 14 13 14 13 13 14 13 14 12 10 14 12 8 6 7 6 7 8 11 16 13 7 7 8 8
7 5 7 8 9 11 11 11 11 10 10 10 10 11 12 12 11 12 12 12 13 13 13 14 14 15 9 22 21 16 9 10 9 7 6 5 7 5 15 16 10 7 7
6 6 8 9 9 10 10 9 9 9 9 9 11 11 11 9 9 8 8 10 11 12 13 14 14 14 13 22 20 18 9 8 9 9 7 6 6 9 10 14 12 11 11
7 8 8 8 9 9 8 8 8 8 8 9 10 11 9 9 13 11 4 9 8 9 10 13 14 14 12 20 20 17 11 10 12 12 11 10 11 12 10 11 12 11 11
9 8 7 8 9 8 9 7 8 8 7 11 10 10 9 11 12 14 8 9 5 7 8 10 11 11 13 19 20 14 11 11 13 12 13 11 11 13 13 12 12 11 11
9 7 9 9 8 9 6 7 8 8 10 11 11 11 11 12 13 14 13 12 9 7 3 6 7 7 9 16 16 13 8 11 9 10 10 16 11 14 10 10 8 8 8
9 11 10 8 8 4 5 9 10 10 10 11 11 10 11 12 12 11 10 11 12 11 10 7 3 7 10 13 13 11 6 5 6 6 6 6 11 11 10 10 7 3 6
10 10 8 8 6 4 8 9 11 11 10 12 12 10 11 9 10 12 11 13 13 11 10 11 6 10 13 13 13 10 7 8 6 3 5 5 8 14 16 11 8 6 4
9 8 8 7 6 6 8 9 10 11 10 9 10 10 8 7 7 11 12 11 12 12 12 10 11 11 11 13 20 14 7 6 4 7 7 1 6 8 10 15 15 11 7
10 7 7 7 6 6 7 9 10 11 9 9 10 11 9 10 8 8 9 10 12 11 11 11 11 11 11 12 12 13 11 5 4 8 6 7 8 11 10 9 8 7 8
9 7 6 6 6 5 7 9 9 10 11 10 10 11 9 9 9 7 7 8 8 9 10 11 9 10 11 12 13 11 12 11 12 7 11 9 8 8 8 8 9 9 9
9 7 7 5 5 6 7 8 9 10 10 10 9 8 8 8 8 8 6 7 6 6 3 2 8 9 12 16 18 14 14 20 16 9 8 9 10 10 10 10 10 9 10
Wind_Direction
214 200 197 215 226 223 232 245 259 267 286 303 312 300 305 318 310 310 320 320 305 299 292 290 299 305 297 301 300 291 288 285 284 281 274 270 262 256 249 257 261 264 262
208 213 203 201 220 224 228 238 249 295 315 312 329 318 308 307 310 299 286 290 314 320 311 313 308 301 306 301 292 286 283 279 274 276 280 280 270 262 257 249 240 245 249
220 212 218 202 222 230 238 266 5 348 352 353 290 319 319 300 309 321 324 313 322 320 312 307 306 299 296 292 310 315 312 298 297 299 295 284 276 286 280 269 237 242 239
227 232 211 205 211 235 63 53 51 17 70 20 351 355 309 317 331 305 314 324 314 313 301 294 311 317 322 315 313 310 314 302 289 294 288 289 303 296 282 286 288 284 235
240 219 234 221 160 102 98 90 87 68 42 8 360 340 333 325 319 317 314 313 295 305 326 315 314 315 307 301 301 290 283 278 280 283 276 276 283 284 288 265 272 284 286
252 212 206 109 109 117 114 110 110 53 17 1 355 343 329 322 318 314 310 307 326 315 316 320 314 310 302 295 298 292 283 276 271 268 279 277 274 283 288 300 264 255 277
234 187 123 153 129 116 111 141 58 354 7 354 344 337 328 321 308 320 313 328 315 314 312 313 303 298 294 292 287 285 280 280 272 264 262 255 262 271 281 287 289 291 253
179 170 143 152 141 95 49 359 5 351 355 347 341 335 329 322 315 327 325 308 306 307 313 306 301 301 293 289 282 277 273 269 268 264 260 265 265 261 263 276 299 290 299
90 79 83 91 100 91 51 3 0 356 350 344 338 332 329 325 326 316 313 312 313 307 305 304 299 295 295 292 292 281 279 268 262 259 259 255 264 255 252 262 268 280 280
118 111 127 100 90 58 27 11 358 354 346 344 338 333 330 336 327 319 314 308 306 310 308 306 301 301 301 296 287 283 278 275 264 255 254 251 259 257 251 251 259 262 270
148 139 127 110 63 10 13 8 357 349 349 345 340 337 340 329 322 320 316 314 313 313 311 307 305 304 298 295 290 281 279 271 268 256 251 252 253 252 253 253 246 255 252
125 133 135 87 28 12 6 2 356 351 350 343 343 338 331 329 328 318 321 323 316 314 313 310 307 305 304 300 293 287 278 270 268 266 250 250 248 250 247 247 251 251 264
128 121 82 49 14 10 3 359 358 354 349 350 339 333 332 332 329 337 319 323 317 326 325 320 319 317 310 306 298 287 277 262 262 262 252 252 249 251 249 244 242 249 254
130 93 75 35 22 10 3 358 359 360 348 341 339 334 340 333 339 315 330 320 340 329 331 326 319 319 317 310 311 306 319 245 258 252 246 246 247 252 256 259 246 256 267
111 84 46 24 20 9 2 3 2 350 347 342 336 340 336 335 313 333 337 333 335 330 328 324 329 329 324 330 331 335 328 297 285 260 241 240 245 252 253 263 260 263 295
109 78 46 29 18 12 6 5 355 353 347 349 344 342 339 325 340 340 336 338 336 337 336 341 340 338 342 342 351 360 360 8 11 3 5 18 20 307 250 243 262 335 298
87 62 49 36 22 18 14 360 356 358 357 351 351 339 330 332 333 323 337 340 342 340 348 349 348 346 350 355 359 1 14 16 18 21 24 31 29 31 55 86 79 59 52
85 60 47 38 35 29 21 19 7 7 337 7 345 329 344 340 343 348 340 333 336 342 348 345 348 354 360 5 5 6 22 30 33 26 36 42 47 41 56 69 67 56 44
81 73 62 53 55 46 42 26 23 15 2 344 360 359 350 358 354 0 358 333 315 329 343 326 333 347 8 13 13 12 23 24 36 34 36 37 45 34 43 66 73 74 67
84 80 73 75 73 62 43 23 18 11 360 342 358 1 2 356 1 358 358 348 346 332 314 288 316 336 4 10 19 16 20 28 26 30 29 28 37 33 20 78 77 79 88
97 95 81 84 74 48 22 31 21 13 356 352 343 6 355 1 1 359 358 351 349 7 2 349 19 25 26 8 358 16 23 7 22 25 24 26 23 26 20 30 33 39 130
106 99 99 93 97 29 22 24 16 360 5 349 342 351 10 10 345 5 8 8 356 7 356 360 34 41 25 10 358 355 30 2 39 37 79 59 31 49 29 33 11 358 354
107 110 105 98 87 54 26 13 13 4 4 341 346 347 17 357 349 18 17 15 8 7 6 12 6 19 24 13 360 349 344 14 19 10 27 299 323 23 38 29 9 15 30
115 116 106 103 86 47 23 13 12 357 349 348 360 345 17 355 24 33 25 34 20 14 17 3 23 6 13 12 2 356 357 334 332 3 45 28 55 48 24 32 22 23 28
125 110 99 97 75 31 15 14 12 349 352 356 353 3 14 16 10 66 26 39 50 32 33 12 14 12 14 360 327 340 3 2 12 29 35 31 27 26 23 27 29 27 15
121 121 108 90 49 25 4 12 9 346 358 1 356 15 8 12 17 12 128 59 103 222 165 71 18 28 27 358 359 354 354 15 8 37 28 27 21 19 17 14 12 21 17